FW7021 Weather Reports


time (UTC)temp
C
wind
direction
speed
KPH
gust
KPH
rain 1hr
cm
rain 24hr
cm
rain mn
cm
humidity
%
barometer
mb
20220124104042 -3 182 1.6 1.6 0.00 0.00 0.00 85 1012.8
20220124103541 -3 175 0.0 1.6 0.00 0.00 0.00 85 1012.6
20220124103041 -3 181 0.0 0.0 0.00 0.00 0.00 85 1012.6
20220124102540 -3 181 0.0 0.0 0.00 0.00 0.00 85 1012.5
20220124102040 -3 178 0.0 0.0 0.00 0.00 0.00 86 1012.4
20220124101539 -2 168 0.0 1.6 0.00 0.00 0.00 86 1012.2
20220124101039 -2 171 0.0 0.0 0.00 0.00 0.00 88 1012.3
20220124100538 -2 176 0.0 0.0 0.00 0.00 0.00 88 1012.3
20220124100036 -2 176 0.0 0.0 0.00 0.00 0.00 88 1012.4
20220124095535 -2 177 0.0 0.0 0.00 0.00 0.00 88 1012.4
20220124095035 -2 176 1.6 1.6 0.00 0.00 0.00 87 1012.3
20220124094535 -2 176 0.0 0.0 0.00 0.00 0.00 87 1012.3
20220124094035 -2 176 0.0 0.0 0.00 0.00 0.00 87 1012.1
20220124093532 -2 176 0.0 0.0 0.00 0.00 0.00 87 1011.9
20220124093031 -2 176 0.0 0.0 0.00 0.00 0.00 87 1012.3
20220124092529 -2 176 0.0 0.0 0.00 0.00 0.00 88 1011.8
20220124092028 -2 176 0.0 0.0 0.00 0.00 0.00 88 1012.0
20220124091527 -2 176 0.0 0.0 0.00 0.00 0.00 88 1012.0
20220124091027 -2 176 0.0 0.0 0.00 0.00 0.00 88 1011.9
20220124090525 -3 176 0.0 0.0 0.00 0.00 0.00 88 1011.7
20220124090024 -3 177 0.0 0.0 0.00 0.00 0.00 88 1011.9
20220124085523 -3 176 0.0 0.0 0.00 0.00 0.00 88 1011.8
20220124085022 -2 177 0.0 0.0 0.00 0.00 0.00 88 1011.8
20220124084521 -2 176 0.0 0.0 0.00 0.00 0.00 88 1011.7
20220124084020 -2 176 0.0 0.0 0.00 0.00 0.00 87 1011.7
20220124083519 -2 176 1.6 1.6 0.00 0.00 0.00 87 1011.5
20220124083019 -2 176 0.0 1.6 0.00 0.00 0.00 86 1011.4
20220124082518 -2 178 1.6 1.6 0.00 0.00 0.00 85 1010.9
20220124082018 -2 188 1.6 3.2 0.00 0.00 0.00 85 1010.8
20220124081518 -1 193 3.2 3.2 0.00 0.00 0.00 86 1010.8
20220124081018 -1 193 0.0 0.0 0.00 0.00 0.00 86 1010.8
20220124080516 -1 193 3.2 3.2 0.00 0.00 0.00 86 1011.0
20220124080015 -1 187 1.6 1.6 0.00 0.00 0.00 86 1010.9
20220124075515 -1 183 0.0 0.0 0.00 0.00 0.00 87 1010.9
20220124075015 -1 175 0.0 1.6 0.00 0.00 0.00 87 1010.8
20220124074515 -1 185 0.0 0.0 0.00 0.00 0.00 87 1010.9
20220124074015 -1 178 0.0 0.0 0.00 0.00 0.00 88 1011.0
20220124073515 -2 178 0.0 1.6 0.00 0.00 0.00 88 1010.9
20220124073014 -2 190 0.0 0.0 0.00 0.00 0.00 88 1010.8
20220124072513 -1 191 0.0 0.0 0.00 0.00 0.00 88 1010.8
20220124072011 -1 191 0.0 0.0 0.00 0.00 0.00 88 1010.8
20220124071511 -1 191 0.0 0.0 0.00 0.00 0.00 87 1010.6
20220124071009 -1 191 0.0 0.0 0.00 0.00 0.00 87 1010.7
20220124070507 -1 181 0.0 0.0 0.00 0.00 0.00 87 1010.6
20220124070005 -1 180 0.0 1.6 0.00 0.00 0.00 87 1010.6
20220124065503 -2 172 1.6 1.6 0.00 0.00 0.00 87 1010.4
20220124065003 -2 183 1.6 1.6 0.00 0.00 0.00 88 1010.4
20220124064501 -2 185 0.0 0.0 0.00 0.00 0.00 87 1010.1
20220124063959 -2 184 0.0 0.0 0.00 0.00 0.00 87 1010.1
20220124063459 -2 184 0.0 0.0 0.00 0.00 0.00 87 1010.4
20220124062959 -2 184 0.0 0.0 0.00 0.00 0.00 87 1010.3
20220124062458 -2 184 0.0 0.0 0.00 0.00 0.00 86 1010.2
20220124061957 -1 184 0.0 0.0 0.00 0.00 0.00 86 1010.2
20220124061456 -1 164 0.0 1.6 0.00 0.00 0.00 86 1010.3
20220124060954 -1 183 0.0 0.0 0.00 0.00 0.00 86 1010.2
20220124060453 -1 183 0.0 0.0 0.00 0.00 0.00 86 1010.1
20220124055951 -1 183 0.0 0.0 0.00 0.00 0.00 85 1010.0
20220124055450 -1 184 0.0 0.0 0.00 0.00 0.00 84 1010.0
20220124054948 -1 187 0.0 0.0 0.00 0.00 0.00 84 1009.9
20220124054447 -1 162 3.2 3.2 0.00 0.00 0.00 85 1010.1
20220124053946 -1 197 0.0 0.0 0.00 0.00 0.00 85 1009.9
20220124053445 -1 180 0.0 0.0 0.00 0.00 0.00 85 1010.0
20220124052943 -1 180 0.0 0.0 0.00 0.00 0.00 84 1009.9
20220124052441 -1 180 0.0 0.0 0.00 0.00 0.00 84 1010.1
20220124051940 -1 180 0.0 0.0 0.00 0.00 0.00 84 1010.0
20220124051438 -1 180 0.0 0.0 0.00 0.00 0.00 84 1010.1
20220124050936 -1 180 0.0 0.0 0.00 0.00 0.00 84 1010.3
20220124050435 -1 186 0.0 0.0 0.00 0.00 0.00 84 1010.0
20220124045935 -1 190 0.0 0.0 0.00 0.00 0.00 84 1010.0
20220124045433 -1 189 0.0 0.0 0.00 0.00 0.00 84 1010.0
20220124044933 -1 189 0.0 0.0 0.00 0.00 0.00 84 1010.0
20220124044432 -1 190 0.0 0.0 0.00 0.00 0.00 84 1009.9
20220124043930 -1 189 0.0 0.0 0.00 0.00 0.00 84 1010.2
20220124043431 -1 189 0.0 0.0 0.00 0.00 0.00 84 1010.0
20220124042930 -1 190 0.0 0.0 0.00 0.00 0.00 83 1009.9
20220124042430 -1 186 0.0 1.6 0.00 0.00 0.00 82 1010.0
20220124041931 -1 194 0.0 0.0 0.00 0.00 0.00 82 1010.2
20220124041429 -1 188 0.0 0.0 0.00 0.00 0.00 81 1010.1
20220124040928 -1 189 0.0 0.0 0.00 0.00 0.00 79 1010.0
20220124040428 -1 187 0.0 0.0 0.00 0.00 0.00 78 1009.8
20220124035928 -1 184 0.0 1.6 0.00 0.00 0.00 78 1009.8
20220124035427 -1 184 0.0 1.6 0.00 0.00 0.00 77 1009.7
20220124034927 -1 184 0.0 1.6 0.00 0.00 0.00 77 1009.8
20220124034426 -1 179 3.2 3.2 0.00 0.00 0.00 76 1009.7
20220124033926 -1 171 0.0 1.6 0.00 0.00 0.00 74 1009.6
20220124033425 0 171 0.0 0.0 0.00 0.00 0.00 74 1009.7
20220124032924 0 170 1.6 1.6 0.00 0.00 0.00 74 1009.3
20220124032423 0 171 1.6 1.6 0.00 0.00 0.00 75 1009.8
20220124031922 0 161 0.0 1.6 0.00 0.00 0.00 73 1009.6
20220124031420 0 164 1.6 1.6 0.00 0.00 0.00 75 1009.5
20220124030920 0 159 1.6 1.6 0.00 0.00 0.00 75 1009.5
20220124030418 -1 152 1.6 1.6 0.00 0.00 0.00 75 1009.5
20220124025917 0 152 1.6 1.6 0.00 0.00 0.00 75 1009.6
20220124025417 0 147 1.6 1.6 0.00 0.00 0.00 75 1009.4
20220124024916 -1 166 0.0 1.6 0.00 0.00 0.00 76 1009.4
20220124024415 -1 171 0.0 1.6 0.00 0.00 0.00 76 1009.7
20220124023913 0 157 1.6 1.6 0.00 0.00 0.00 75 1009.6
20220124023412 0 146 1.6 1.6 0.00 0.00 0.00 74 1009.6
20220124022912 0 32 3.2 3.2 0.00 0.00 0.00 74 1009.5
20220124022410 -1 32 4.8 4.8 0.00 0.00 0.00 75 1009.6
20220124021909 0 7 6.4 11.3 0.00 0.00 0.00 74 1009.4
20220124021408 0 29 8.0 11.3 0.00 0.00 0.00 74 1009.5
20220124020906 0 356 9.7 11.3 0.00 0.00 0.00 74 1009.6
20220124020406 -1 333 12.9 14.5 0.00 0.00 0.00 73 1009.6
20220124015905 -1 10 6.4 9.7 0.00 0.00 0.00 73 1009.5
20220124015404 0 356 6.4 8.0 0.00 0.00 0.00 74 1009.4
20220124014904 -1 17 6.4 8.0 0.00 0.00 0.00 73 1009.5
20220124014403 0 357 8.0 8.0 0.00 0.00 0.00 73 1009.5
20220124013903 0 7 9.7 11.3 0.00 0.00 0.00 72 1009.5
20220124013402 0 15 4.8 8.0 0.00 0.00 0.00 72 1009.5
20220124012900 0 49 3.2 4.8 0.00 0.00 0.00 71 1009.6
20220124012400 0 14 4.8 8.0 0.00 0.00 0.00 71 1009.4
20220124011900 0 11 8.0 9.7 0.00 0.00 0.00 71 1009.6
20220124011400 0 5 8.0 8.0 0.00 0.00 0.00 70 1009.3
20220124010900 0 356 9.7 11.3 0.00 0.00 0.00 71 1009.3
20220124010358 0 1 8.0 9.7 0.00 0.00 0.00 71 1009.5
20220124005858 0 8 8.0 11.3 0.00 0.00 0.00 71 1009.3
20220124005357 0 18 6.4 8.0 0.00 0.00 0.00 71 1009.4
20220124004857 -1 15 11.3 11.3 0.00 0.00 0.00 71 1009.3
20220124004356 -1 33 8.0 12.9 0.00 0.00 0.00 71 1009.4
20220124003855 -1 359 6.4 9.7 0.00 0.00 0.00 71 1009.5
20220124003353 0 3 8.0 9.7 0.00 0.00 0.00 71 1009.2
20220124002851 0 17 9.7 11.3 0.00 0.00 0.00 70 1009.3
20220124002350 0 35 6.4 9.7 0.00 0.00 0.00 71 1009.6
20220124001850 0 342 11.3 14.5 0.00 0.00 0.00 71 1009.4
20220124001349 0 357 6.4 9.7 0.00 0.00 0.00 72 1009.4
20220124000848 0 12 8.0 9.7 0.00 0.00 0.00 72 1009.2
20220124000347 0 4 6.4 8.0 0.00 0.00 0.00 74 1009.3
20220123235844 0 107 3.2 4.8 0.00 0.00 0.00 74 1009.4
20220123235343 0 34 3.2 3.2 0.00 0.00 0.00 74 1009.5
20220123234842 0 5 4.8 4.8 0.00 0.00 0.00 73 1009.4
20220123234343 0 38 4.8 8.0 0.00 0.00 0.00 74 1009.3
20220123233841 0 18 4.8 8.0 0.00 0.00 0.00 74 1009.2
20220123233341 0 24 6.4 8.0 0.00 0.00 0.00 75 1009.1
20220123232841 0 104 4.8 4.8 0.00 0.00 0.00 76 1009.0
20220123232340 -1 155 1.6 3.2 0.00 0.00 0.00 78 1009.4
20220123231840 -1 46 4.8 8.0 0.00 0.00 0.00 79 1009.0
20220123231339 -1 90 3.2 4.8 0.00 0.00 0.00 82 1009.0
20220123230838 -1 130 4.8 4.8 0.00 0.00 0.00 83 1009.0
20220123230336 -1 59 4.8 8.0 0.00 0.00 0.00 83 1009.1
20220123225836 -1 15 4.8 8.0 0.00 0.00 0.00 84 1009.2
20220123225335 -1 335 4.8 4.8 0.00 0.00 0.00 86 1009.1
20220123224835 -1 24 4.8 4.8 0.00 0.00 0.00 87 1009.2
20220123224335 -1 249 3.2 3.2 0.00 0.00 0.00 88 1009.4
20220123223833 -1 213 3.2 3.2 0.00 0.00 0.00 89 1009.3
20220123223334 -1 179 1.6 3.2 0.00 0.00 0.00 90 1009.2
20220123222832 -1 190 0.0 1.6 0.00 0.00 0.00 90 1009.2
20220123222330 -1 183 0.0 0.0 0.00 0.00 0.00 90 1009.4
20220123221829 -1 189 1.6 3.2 0.00 0.00 0.00 90 1009.4
20220123221328 -1 215 1.6 3.2 0.00 0.00 0.00 90 1009.3
20220123220827 -1 179 1.6 3.2 0.00 0.00 0.00 91 1009.3
20220123220326 -1 182 1.6 1.6 0.00 0.00 0.00 91 1009.1
20220123215826 -1 209 1.6 1.6 0.00 0.00 0.00 91 1009.2
20220123215324 -1 190 0.0 0.0 0.00 0.00 0.00 92 1009.4
20220123214823 -1 178 1.6 1.6 0.00 0.00 0.00 92 1009.6
20220123214322 -1 179 0.0 0.0 0.00 0.00 0.00 92 1009.3
20220123213822 -1 179 1.6 1.6 0.00 0.00 0.00 92 1009.5
20220123213322 -1 179 0.0 0.0 0.00 0.00 0.00 92 1009.6
20220123212821 -1 179 0.0 0.0 0.00 0.00 0.00 92 1009.5
20220123212320 -1 178 0.0 0.0 0.00 0.00 0.00 91 1009.7
20220123211820 -1 173 1.6 1.6 0.00 0.00 0.00 91 1009.8
20220123211320 -1 159 1.6 1.6 0.00 0.00 0.00 90 1009.6
20220123210818 -1 165 1.6 3.2 0.00 0.00 0.00 89 1009.8
20220123210319 -1 95 4.8 4.8 0.00 0.00 0.00 87 1009.7
20220123205818 -1 97 4.8 4.8 0.00 0.00 0.00 86 1009.8
20220123205318 -1 85 3.2 4.8 0.00 0.00 0.00 83 1009.7
20220123204817 0 29 6.4 9.7 0.00 0.00 0.00 80 1009.7
20220123204315 0 153 1.6 3.2 0.00 0.00 0.00 77 1009.8
20220123203815 0 121 4.8 4.8 0.00 0.00 0.00 77 1009.8
20220123203315 0 60 4.8 4.8 0.00 0.00 0.00 74 1009.8
20220123202814 0 58 3.2 4.8 0.00 0.00 0.00 72 1009.9
20220123202314 0 98 4.8 4.8 0.00 0.00 0.00 71 1010.0
20220123201813 0 84 4.8 4.8 0.00 0.00 0.00 67 1010.0
20220123201313 0 50 3.2 3.2 0.00 0.00 0.00 68 1010.0
20220123200811 0 35 6.4 9.7 0.00 0.00 0.00 66 1009.9
20220123200311 0 67 4.8 4.8 0.00 0.00 0.00 64 1010.2
20220123195811 0 2 8.0 11.3 0.00 0.00 0.00 63 1010.2
20220123195310 1 42 3.2 4.8 0.00 0.00 0.00 63 1010.2
20220123194809 0 16 6.4 8.0 0.00 0.00 0.00 60 1010.2
20220123194308 1 22 3.2 8.0 0.00 0.00 0.00 60 1010.3
20220123193806 1 53 4.8 8.0 0.00 0.00 0.00 58 1010.4
20220123193305 1 142 3.2 3.2 0.00 0.00 0.00 59 1010.2
20220123192804 1 56 4.8 4.8 0.00 0.00 0.00 57 1010.4
20220123192305 1 153 0.0 1.6 0.00 0.00 0.00 58 1010.4
20220123191804 1 240 1.6 1.6 0.00 0.00 0.00 59 1010.6
20220123191303 1 29 4.8 8.0 0.00 0.00 0.00 57 1010.5
20220123190802 1 84 4.8 4.8 0.00 0.00 0.00 58 1010.6
20220123190302 1 44 8.0 11.3 0.00 0.00 0.00 58 1010.9
20220123185802 1 28 6.4 8.0 0.00 0.00 0.00 58 1010.8
20220123185305 1 54 4.8 4.8 0.00 0.00 0.00 58 1010.8
20220123184800 1 39 4.8 4.8 0.00 0.00 0.00 58 1010.7
20220123184300 1 29 4.8 4.8 0.00 0.00 0.00 58 1010.9
20220123183759 1 29 6.4 8.0 0.00 0.00 0.00 60 1010.9
20220123183258 1 27 11.3 11.3 0.00 0.00 0.00 58 1010.9
20220123182758 1 20 6.4 8.0 0.00 0.00 0.00 59 1011.3
20220123182256 1 38 6.4 8.0 0.00 0.00 0.00 58 1011.3
20220123181757 1 57 6.4 8.0 0.00 0.00 0.00 59 1011.4
20220123181256 1 35 4.8 4.8 0.00 0.00 0.00 59 1011.3
20220123180756 1 155 3.2 3.2 0.00 0.00 0.00 60 1011.5
20220123180254 1 101 3.2 4.8 0.00 0.00 0.00 58 1011.9
20220123175754 0 58 4.8 4.8 0.00 0.00 0.00 57 1011.7
20220123175252 0 51 4.8 4.8 0.00 0.00 0.00 58 1011.8
20220123174753 1 52 8.0 9.7 0.00 0.00 0.00 58 1011.5
20220123174251 1 34 9.7 16.1 0.00 0.00 0.00 58 1011.7
20220123173750 1 134 4.8 9.7 0.00 0.00 0.00 59 1012.1
20220123173249 1 46 8.0 9.7 0.00 0.00 0.00 57 1012.0
20220123172748 1 7 6.4 8.0 0.00 0.00 0.00 57 1012.0
20220123172248 1 41 4.8 8.0 0.00 0.00 0.00 58 1012.2
20220123171746 1 6 14.5 17.7 0.00 0.00 0.00 58 1012.5
20220123171245 2 33 11.3 14.5 0.00 0.00 0.00 58 1012.4
20220123170743 1 46 4.8 8.0 0.00 0.00 0.00 58 1012.5
20220123170242 1 20 6.4 8.0 0.00 0.00 0.00 57 1012.8
20220123165741 1 351 11.3 16.1 0.00 0.00 0.00 58 1012.8
20220123165241 1 112 4.8 4.8 0.00 0.00 0.00 56 1012.8
20220123164739 1 151 1.6 3.2 0.00 0.00 0.00 57 1013.0
20220123164238 1 154 1.6 1.6 0.00 0.00 0.00 57 1013.3
20220123163738 1 45 6.4 8.0 0.00 0.00 0.00 57 1013.6
20220123163236 1 17 4.8 4.8 0.00 0.00 0.00 57 1013.7
20220123162736 1 24 8.0 11.3 0.00 0.00 0.00 57 1013.8
20220123162234 1 171 0.0 1.6 0.00 0.00 0.00 57 1013.8
20220123161734 1 47 6.4 8.0 0.00 0.00 0.00 59 1014.0
20220123161233 1 143 3.2 3.2 0.00 0.00 0.00 58 1014.1
20220123160731 0 45 4.8 4.8 0.00 0.00 0.00 59 1014.2
20220123160230 0 34 4.8 4.8 0.00 0.00 0.00 58 1014.3
20220123155729 0 36 6.4 9.7 0.00 0.00 0.00 59 1014.4
20220123155230 0 43 8.0 11.3 0.00 0.00 0.00 60 1014.3
20220123154728 0 143 3.2 3.2 0.00 0.00 0.00 58 1014.3
20220123154226 0 108 6.4 9.7 0.00 0.00 0.00 61 1014.2
20220123153724 0 66 4.8 4.8 0.00 0.00 0.00 60 1014.4
20220123153224 0 41 6.4 9.7 0.00 0.00 0.00 60 1014.6
20220123152723 0 42 6.4 8.0 0.00 0.00 0.00 60 1014.4
20220123152221 0 50 12.9 16.1 0.00 0.00 0.00 61 1014.5
20220123151720 0 63 3.2 4.8 0.00 0.00 0.00 61 1014.7
20220123151219 0 114 1.6 1.6 0.00 0.00 0.00 63 1015.0
20220123150718 0 20 8.0 9.7 0.00 0.00 0.00 62 1015.1
20220123150216 0 67 1.6 3.2 0.00 0.00 0.00 64 1015.3
20220123145717 0 27 3.2 3.2 0.00 0.00 0.00 62 1015.2
20220123145216 -1 32 4.8 4.8 0.00 0.00 0.00 62 1015.0
20220123144715 -1 18 6.4 9.7 0.00 0.00 0.00 63 1015.1
20220123144215 -1 20 11.3 12.9 0.00 0.00 0.00 63 1015.2
20220123143713 -1 54 3.2 4.8 0.00 0.00 0.00 64 1015.2
20220123143212 -1 18 9.7 11.3 0.00 0.00 0.00 64 1015.3
20220123142711 -1 17 9.7 9.7 0.00 0.00 0.00 64 1015.5
20220123142209 -1 39 6.4 9.7 0.00 0.00 0.00 64 1015.4
20220123141708 -1 23 6.4 9.7 0.00 0.00 0.00 64 1015.5
20220123141208 -2 47 6.4 8.0 0.00 0.00 0.00 66 1015.3
20220123140707 -2 359 4.8 8.0 0.00 0.00 0.00 68 1015.3
20220123140205 -3 138 1.6 1.6 0.00 0.00 0.00 69 1015.4
20220123135705 -3 103 4.8 4.8 0.00 0.00 0.00 68 1015.6
20220123135204 -3 37 3.2 3.2 0.00 0.00 0.00 69 1015.6
20220123134702 -2 138 1.6 3.2 0.00 0.00 0.00 68 1015.7
20220123134202 -3 88 3.2 4.8 0.00 0.00 0.00 69 1015.9
20220123133700 -3 116 3.2 3.2 0.00 0.00 0.00 68 1015.5
20220123133158 -3 132 3.2 3.2 0.00 0.00 0.00 69 1016.0
20220123132657 -3 36 3.2 8.0 0.00 0.00 0.00 70 1016.0
20220123132156 -3 151 1.6 1.6 0.00 0.00 0.00 70 1016.2
20220123131655 -3 153 0.0 1.6 0.00 0.00 0.00 69 1016.3
20220123131153 -3 152 1.6 3.2 0.00 0.00 0.00 69 1016.3
20220123130653 -3 165 0.0 0.0 0.00 0.00 0.00 70 1016.2
20220123130152 -4 148 1.6 1.6 0.00 0.00 0.00 68 1016.3
20220123125651 -4 165 1.6 1.6 0.00 0.00 0.00 69 1016.4
20220123125150 -4 165 1.6 1.6 0.00 0.00 0.00 69 1016.3
20220123124650 -4 163 0.0 1.6 0.00 0.00 0.00 68 1016.6
20220123124148 -4 162 0.0 1.6 0.00 0.00 0.00 67 1016.6
20220123123646 -5 163 1.6 1.6 0.00 0.00 0.00 67 1016.7
20220123123146 -5 162 0.0 1.6 0.00 0.00 0.00 68 1016.9
20220123122645 -5 148 3.2 3.2 0.00 0.00 0.00 68 1016.7
20220123122145 -5 166 0.0 1.6 0.00 0.00 0.00 66 1017.0
20220123121644 -5 166 0.0 1.6 0.00 0.00 0.00 66 1017.1
20220123121145 -5 166 0.0 0.0 0.00 0.00 0.00 66 1017.2
20220123120643 -5 166 1.6 1.6 0.00 0.00 0.00 66 1017.1
20220123120142 -5 166 1.6 1.6 0.00 0.00 0.00 66 1017.0
20220123115640 -5 166 1.6 1.6 0.00 0.00 0.00 67 1017.2
20220123115140 -6 166 0.0 0.0 0.00 0.00 0.00 67 1017.3
20220123114639 -6 166 0.0 0.0 0.00 0.00 0.00 67 1017.2
20220123114139 -5 166 1.6 3.2 0.00 0.00 0.00 66 1017.3
20220123113638 -5 166 1.6 1.6 0.00 0.00 0.00 65 1017.3
20220123113137 -6 166 0.0 1.6 0.00 0.00 0.00 66 1017.3
20220123112636 -6 166 1.6 1.6 0.00 0.00 0.00 65 1017.3
20220123112134 -6 166 0.0 0.0 0.00 0.00 0.00 65 1017.3
20220123111634 -6 165 1.6 3.2 0.00 0.00 0.00 65 1017.2
20220123111135 -6 166 1.6 1.6 0.00 0.00 0.00 63 1017.4
20220123110633 -6 166 0.0 0.0 0.00 0.00 0.00 63 1017.3
20220123110131 -6 166 1.6 1.6 0.00 0.00 0.00 63 1017.1
20220123105631 -6 166 0.0 1.6 0.00 0.00 0.00 63 1017.1
20220123105131 -6 166 0.0 0.0 0.00 0.00 0.00 64 1017.0
20220123104629 -6 165 1.6 1.6 0.00 0.00 0.00 64 1017.5